Regional Weather Roundup
Issued by NWS

Home | Current Version | Previous Version | Text Only | Print | Product List | Glossary Off
Versions: 1 2 3 4 5 6 7 8 9 10 11 12 13 14 15 16 17 18 19 20 21 22 23 24 25 26 27 28 29 30 31 32 33 34 35 36 37 38 39 40 41 42 43 44 45 46 47 48 49 50

000
ASUS43 KLSX 250259
RWRMO

WEATHER SUMMARY FOR MISSOURI
NATIONAL WEATHER SERVICE SPRINGFIELD MO
1000 PM CDT WED MAY 24 2017

NOTE: "FAIR" INDICATES FEW OR NO CLOUDS BELOW 12,000 FEET WITH NO
       SIGNIFICANT WEATHER AND/OR OBSTRUCTIONS TO VISIBILITY.
       CURRENT SKY AND/OR WEATHER CONDITIONS ARE NOT AVAILABLE FOR
       CHILLICOTHE AND FARMINGTON.

MOZ001>031-035>038-043-044-053-054-250400-
...NORTHERN AND WESTERN MISSOURI...

CITY           SKY/WX    TMP DP  RH WIND       PRES   REMARKS
KANSAS CTY INT CLEAR     58  49  72 CALM      29.68S
KANSAS C DTWN  CLEAR     59  49  69 CALM      29.68R
LEE`S SUMMIT   CLEAR     57  49  74 CALM      29.69R
ST JOSEPH      CLEAR     54  52  93 CALM      29.69R
CHILLICOTHE      N/A     54  51  90 CALM      29.70R
KIRKSVILLE     CLEAR     52  51  97 NW6       29.68R

$$
MOZ066>068-077>081-088>096-101>105-250400-
...SOUTHWEST MISSOURI...

CITY           SKY/WX    TMP DP  RH WIND       PRES   REMARKS
SPRINGFIELD    CLOUDY    56  51  84 NW3       29.69R
JOPLIN         CLEAR     54  51  90 CALM      29.71R

$$
MOZ032>034-039>042-045>050-055>058-069>072-250400-
...CENTRAL MISSOURI...

CITY           SKY/WX    TMP DP  RH WIND       PRES   REMARKS
COLUMBIA       CLEAR     55  49  80 NW6       29.67R
JEFFERSON CITY CLEAR     60  49  66 NW5       29.66R
ROLLA          CLEAR     52  47  83 NW6       29.65R
SEDALIA        MOCLDY    58  53  84 NW6       29.69R
WARRENSBURG    CLEAR     54  52  94 CALM      29.69R
OSAGE BEACH    CLEAR     54  50  86 W3        29.68R

$$
MOZ051-052-059>065-250400-
...EAST CENTRAL MISSOURI...

CITY           SKY/WX    TMP DP  RH WIND       PRES   REMARKS
ST LOUIS INTL  PTCLDY    61  50  67 NW9       29.60R
SPIRIT OF STL  CLEAR     58  51  78 NW6       29.61R
ST CHARLES     CLEAR     58  52  80 NW10      29.60R

$$
MOZ072>076-082>087-097>100-106>115-250400-
...SOUTH CENTRAL AND SOUTHEAST MISSOURI...

CITY           SKY/WX    TMP DP  RH WIND       PRES   REMARKS
CAPE GIRARDEAU CLEAR     57  48  72 NW9       29.59R
FARMINGTON     CLEAR     53  49  86 W5        29.62R
POPLAR BLUFF   CLEAR     56  50  80 W6        29.62R
WEST PLAINS    CLEAR     52  49  89 W5        29.68R

$$




USA.gov is the U.S. government's official web portal to all federal, state and local government web resources and services.